This is the latest recevied weather packets stored in our database for station/object NI4CE-11. If no packets are shown the sender has not sent any weather packets the latest 10 day(s).
| Time | Temp. | Humidity | Pressure | Rain* | Wind** | Luminosity | Snow |
|---|---|---|---|---|---|---|---|
| 1777626312 | 23.33° C | 100% | 1011.9 hPa | 0 mm | - | - | - |
| 1777626012 | 23.33° C | 100% | 1011.9 hPa | 0 mm | - | - | - |
| 1777625712 | 22.22° C | 100% | 1011.7 hPa | 0 mm | - | - | - |
| 1777625412 | 22.22° C | 100% | 1011.5 hPa | 0 mm | - | - | - |
| 1777625112 | 23.89° C | 100% | 1011.4 hPa | 0 mm | - | - | - |
| 1777625016 | 22.78° C | 100% | 1011.5 hPa | 0 mm | - | - | - |
| 1777624812 | 23.33° C | 100% | 1011.5 hPa | 0 mm | - | - | - |
| 1777624512 | 21.11° C | 100% | 1011.6 hPa | 0 mm | - | - | - |
| 1777624212 | 22.78° C | 100% | 1011.5 hPa | 0 mm | - | - | - |
| 1777623912 | 23.89° C | 100% | 1011.2 hPa | 0 mm | - | - | - |
| 1777623612 | 22.22° C | 100% | 1011.4 hPa | 0 mm | - | - | - |
| 1777623312 | 22.78° C | 100% | 1011.5 hPa | 0 mm | - | - | - |
| 1777623012 | 22.78° C | 100% | 1011.5 hPa | 0 mm | - | - | - |
| 1777622712 | 22.78° C | 100% | 1011.6 hPa | 0 mm | - | - | - |
| 1777622412 | 21.67° C | 100% | 1011.6 hPa | 0 mm | - | - | - |
| 1777622112 | 22.22° C | 100% | 1011.7 hPa | 0 mm | - | - | - |
| 1777621812 | 22.78° C | 100% | 1011.7 hPa | 0 mm | - | - | - |
| 1777621512 | 22.78° C | 100% | 1011.9 hPa | 0 mm | - | - | - |
| 1777621212 | 22.22° C | 100% | 1012 hPa | 0 mm | - | - | - |
| 1777620912 | 21.67° C | 100% | 1011.9 hPa | 0 mm | - | - | - |
| 1777620612 | 22.22° C | 100% | 1011.9 hPa | 0 mm | - | - | - |
| 1777620380 | 22.78° C | 100% | 1011.9 hPa | 0 mm | - | - | - |
| 1777620312 | 22.78° C | 100% | 1011.9 hPa | 0 mm | - | - | - |
| 1777620257 | 22.22° C | 100% | 1011.9 hPa | 0 mm | - | - | - |
| 1777620012 | 22.22° C | 100% | 1011.9 hPa | 0 mm | - | - | - |
* Rain latest hour (hover to see other rain measurements)
** Current wind speed in m/s (hover to see current wind gust speed)